Modesto, CA

7:16 PM PDT on June 23, 2017 (GMT -0700)
Modesto City-County-Sham

Weather History for KMOD - November, 2011

Change the Weather History Date:

Thursday, November 10, 2011

  Actual Average Record
Temperature  
Mean Temperature 53 °F -  
Max Temperature 69 °F 68 °F 82 °F (1996)
Min Temperature 37 °F 46 °F 32 °F (1946)
Degree Days  
Heating Degree Days 12 8  
Month to date heating degree days 115 66  
Since 1 July heating degree days 161 129  
Cooling Degree Days 0 0  
Month to date cooling degree days 0 0  
Year to date cooling degree days 1489 1696  
Growing Degree Days 3 (Base 50)    
Moisture  
Dew Point 39 °F    
Average Humidity 60    
Maximum Humidity 92    
Minimum Humidity 28    
Precipitation  
Precipitation 0.00 in 0.04 in 0.76 in (1964)
Month to date precipitation 0.31 0.40  
Year to date precipitation 10.28 10.11  
Since 1 July precipitation 1.31  
Snow  
Snow 0.00 in - 0.00 in (2002)
Month to date snowfall 0.0  
Since 1 July snowfall 0.0  
Since 1 September snowfall 0.0  
Snow Depth -    
Sea Level Pressure  
Sea Level Pressure 30.07 in    
Wind  
Wind Speed 1 mph (SSE)    
Max Wind Speed 10 mph    
Max Gust Speed 25 mph    
Visibility 6 miles    
Events      
T = Trace of Precipitation, MM = Missing Value Source: NWS Daily Summary

Daily Weather History Graph

Daily Weather History Graph

Search for Another Location

Airport or City:

Trip Planner

Search our weather history database for the weather conditions in past years. The results will help you decide how hot, cold, wet, or windy it might be!

Date:

Astronomy

Nov. 10, 2011 Rise Set
Actual Time 6:38 AM PST 4:56 PM PST
Civil Twilight 6:10 AM PST 5:24 PM PST
Nautical Twilight 5:39 AM PST 5:55 PM PST
Astronomical Twilight 5:08 AM PST 6:26 PM PST
Moon 4:49 PM PST (11/10) 6:34 AM PST (11/10)
Length of Visible Light 11h 13m
Length of Day
10h 18m
Full, 100% of the Moon is Illuminated
Nov 10
Full
Nov 10
Full
Nov 18
Last Quarter
Nov 24
New
Dec 2
First Quarter

Hourly Weather History & Observations

Time (PST) Temp. Windchill Dew Point Humidity Pressure Visibility Wind Dir Wind Speed Gust Speed Precip Events Conditions
1:53 AM 42.1 °F - 37.9 °F 85% 30.17 in 6.0 mi Calm Calm - N/A   Clear
2:53 AM 39.9 °F - 37.0 °F 89% 30.16 in 5.0 mi Calm Calm - N/A   Clear
3:53 AM 39.9 °F - 37.9 °F 93% 30.17 in 5.0 mi Calm Calm - N/A   Clear
5:53 AM 39.0 °F - 36.0 °F 89% 30.18 in 4.0 mi Calm Calm - N/A   Clear
6:28 AM 37.4 °F - 35.6 °F 93% 30.17 in 2.5 mi Calm Calm - N/A   Clear
6:38 AM 37.4 °F - 35.6 °F 93% 30.17 in 3.0 mi Calm Calm - N/A   Clear
6:53 AM 37.9 °F - 36.0 °F 93% 30.17 in 3.0 mi Calm Calm - N/A   Clear
7:53 AM 42.1 °F 40.2 °F 39.0 °F 89% 30.18 in 4.0 mi West 3.5 mph - N/A   Clear
8:53 AM 48.9 °F - 43.0 °F 80% 30.16 in 4.0 mi Calm Calm - N/A   Haze
9:53 AM 54.0 °F - 44.1 °F 69% 30.15 in 5.0 mi Calm Calm - N/A   Haze
10:53 AM 57.9 °F - 43.0 °F 58% 30.13 in 5.0 mi SSE 3.5 mph - N/A   Haze
11:53 AM 63.0 °F - 37.9 °F 40% 30.08 in 7.0 mi SE 10.4 mph - N/A   Clear
12:53 PM 64.9 °F - 39.0 °F 39% 30.05 in 7.0 mi SE 8.1 mph - N/A   Clear
2:53 PM 69.1 °F - 36.0 °F 30% 30.00 in 9.0 mi SSE 5.8 mph - N/A   Clear
3:53 PM 68.0 °F - 34.0 °F 28% 29.99 in 10.0 mi SSE 5.8 mph - N/A   Clear
4:53 PM 61.0 °F - 39.9 °F 46% 29.98 in 10.0 mi Calm Calm - N/A   Clear
5:53 PM 54.0 °F - 42.1 °F 64% 29.98 in 10.0 mi Calm Calm - N/A   Clear
6:53 PM 51.1 °F - 42.1 °F 71% 29.98 in 9.0 mi Calm Calm - N/A   Clear
7:53 PM 48.0 °F - 42.1 °F 80% 29.98 in 7.0 mi Calm Calm - N/A   Clear
8:53 PM 46.0 °F 44.8 °F 42.1 °F 86% 29.98 in 7.0 mi ESE 3.5 mph - N/A   Clear
9:53 PM 45.0 °F - 41.0 °F 86% 29.97 in 6.0 mi Calm Calm - N/A   Clear
10:53 PM 45.0 °F - 41.0 °F 86% 29.95 in 7.0 mi Calm Calm - N/A   Clear
11:53 PM 46.0 °F 44.8 °F 39.9 °F 79% 29.92 in 8.0 mi SE 3.5 mph - N/A   Clear